Location: Antoign�
(47.0844°N, 0.1131°W)
Time: 01:34:05
(UTC+00:00)

Cosmos 2333 Rocket - Pass Details

Date: 03 March 2021
Orbit: 837 x 864 km, 70.8° (Epoch: 12 April)

Event Time Altitude Azimuth Distance (km) Brightness Sun altitude
Rises 20:30:00 0° 216° (SW) 3,390 5.5 -27.7°
Reaches altitude 10° 20:32:28 10° 219° (SW) 2,462 4.8 -28.1°
Maximum altitude 20:38:04 63° 301° (WNW) 948 2.6 -29.0°
Drops below altitude 10° 20:43:46 10° 22° (NNE) 2,496 4.7 -29.9°
Sets 20:46:17 0° 26° (NNE) 3,440 5.4 -30.3°
